datetime,inst air temperature
2018-10-01,42.26
2018-10-02,48.38
2018-10-03,52.88
2018-10-04,49.28
2018-10-05,34.34
2018-10-06,44.6
2018-10-07,40.1
2018-10-08,41.72
2018-10-09,47.3
2018-10-10,36.5
2018-10-11,38.48
2018-10-12,40.1
2018-10-13,38.48
2018-10-14,41.72
2018-10-15,43.34
2018-10-16,43.16
2018-10-17,43.52
2018-10-18,40.1
2018-10-19,40.82
2018-10-20,45.32
2018-10-21,42.98
2018-10-22,40.82
2018-10-23,39.92
2018-10-24,40.82
2018-10-25,37.22
2018-10-26,41.72
2018-10-27,48.92
2018-10-28,49.64
2018-10-29,39.56
2018-10-30,33.26
2018-10-31,36.5
2018-11-01,46.94
2018-11-02,40.46
2018-11-03,35.96
2018-11-04,35.24
2018-11-05,39.56
2018-11-06,35.42
2018-11-07,29.84
2018-11-08,34.16
2018-11-09,39.92
2018-11-10,31.1
2018-11-11,34.88
2018-11-12,41.18
2018-11-13,46.04
2018-11-14,31.46
2018-11-15,33.62
2018-11-16,38.48
2018-11-17,35.42
2018-11-18,39.02
2018-11-19,33.08
2018-11-20,36.86
2018-11-21,46.76
2018-11-22,38.12
2018-11-23,34.88
2018-11-24,35.06
2018-11-25,36.14
2018-11-26,36.5
2018-11-27,44.96
2018-11-28,35.42
2018-11-29,38.12
2018-11-30,34.16
2018-12-01,32.9
2018-12-02,30.2
2018-12-03,21.02
2018-12-04,26.6
2018-12-05,30.2
2018-12-06,28.76
2018-12-07,27.68
2018-12-08,30.38
2018-12-09,32.54
2018-12-10,34.52
2018-12-11,28.94
2018-12-12,34.34
2018-12-13,28.94
2018-12-14,32.72
2018-12-15,29.66
2018-12-16,40.64
2018-12-17,33.62
2018-12-18,38.3
2018-12-19,35.6
2018-12-20,32.54
2018-12-21,32.18
2018-12-22,23.54
2018-12-23,33.8
2018-12-24,34.16
2018-12-25,33.98
2018-12-26,28.04
2018-12-27,31.1
2018-12-28,26.24
2018-12-29,29.3
2018-12-30,34.52
2018-12-31,28.22
2019-01-01,23.9
2019-01-02,27.32
2019-01-03,27.32
2019-01-04,30.56
2019-01-05,38.12
2019-01-06,31.46
2019-01-07,28.76
2019-01-08,35.06
2019-01-09,39.02
2019-01-10,35.6
2019-01-11,39.56
2019-01-12,39.74
2019-01-13,39.38
2019-01-14,35.42
2019-01-15,34.7
2019-01-16,36.86
2019-01-17,36.86
2019-01-18,31.28
2019-01-19,37.58
2019-01-20,40.1
2019-01-21,31.64
2019-01-22,26.78
2019-01-23,33.26
2019-01-24,33.8
2019-01-25,30.02
2019-01-26,33.08
2019-01-27,36.86
2019-01-28,33.08
2019-01-29,34.88
2019-01-30,30.2
2019-01-31,30.56
2019-02-01,41.9
2019-02-02,39.2
2019-02-03,34.52
2019-02-04,30.56
2019-02-05,22.64
2019-02-06,25.88
2019-02-07,13.82
2019-02-08,23.9
2019-02-09,28.58
2019-02-10,20.12
2019-02-11,24.26
2019-02-12,27.86
2019-02-13,31.82
2019-02-14,36.14
2019-02-15,30.56
2019-02-16,29.12
2019-02-17,24.8
2019-02-18,23.54
2019-02-19,25.52
2019-02-20,28.04
2019-02-21,25.7
2019-02-22,14.72
2019-02-23,25.34
2019-02-24,32.18
2019-02-25,34.7
2019-02-26,27.86
2019-02-27,35.24
2019-02-28,26.06
2019-03-01,28.76
2019-03-02,30.74
2019-03-03,28.58
2019-03-04,26.96
2019-03-05,27.86
2019-03-06,35.24
2019-03-07,30.02
2019-03-08,18.5
2019-03-09,22.46
2019-03-10,28.94
2019-03-11,29.84
2019-03-12,30.02
2019-03-13,27.68
2019-03-14,25.52
2019-03-15,30.56
2019-03-16,28.4
2019-03-17,30.74
2019-03-18,37.76
2019-03-19,45.32
2019-03-20,36.86
2019-03-21,32.72
2019-03-22,30.38
2019-03-23,34.7
2019-03-24,33.08
2019-03-25,41.72
2019-03-26,32.9
2019-03-27,38.48
2019-03-28,31.64
2019-03-29,31.28
2019-03-30,31.46
2019-03-31,31.1
2019-04-01,36.32
2019-04-02,37.22
2019-04-03,36.5
2019-04-04,37.4
2019-04-05,38.66
2019-04-06,35.24
2019-04-07,41.36
2019-04-08,45.5
2019-04-09,36.14
2019-04-10,32.36
2019-04-11,36.14
2019-04-12,34.16
2019-04-13,32.54
2019-04-14,34.88
2019-04-15,33.08
2019-04-16,34.52
2019-04-17,35.42
2019-04-18,37.22
2019-04-19,40.82
2019-04-20,45.68
2019-04-21,37.22
2019-04-22,35.24
2019-04-23,40.82
2019-04-24,41.0
2019-04-25,45.32
2019-04-26,41.18
2019-04-27,36.5
2019-04-28,33.98
2019-04-29,39.74
2019-04-30,35.96
2019-05-01,33.44
2019-05-02,35.78
2019-05-03,35.78
2019-05-04,39.56
2019-05-05,41.54
2019-05-06,41.54
2019-05-07,44.42
2019-05-08,41.9
2019-05-09,51.8
2019-05-10,49.64
2019-05-11,47.66
2019-05-12,47.12
2019-05-13,44.42
2019-05-14,44.78
2019-05-15,48.56
2019-05-16,44.96
2019-05-17,38.3
2019-05-18,39.56
2019-05-19,37.04
2019-05-20,39.2
2019-05-21,38.3
2019-05-22,38.12
2019-05-23,44.42
2019-05-24,42.44
2019-05-25,37.04
2019-05-26,34.16
2019-05-27,44.42
2019-05-28,45.86
2019-05-29,42.98
2019-05-30,44.96
2019-05-31,46.76
2019-06-01,50.54
2019-06-02,51.8
2019-06-03,49.64
2019-06-04,47.3
2019-06-05,46.94
2019-06-06,49.64
2019-06-07,38.12
2019-06-08,33.62
2019-06-09,42.98
2019-06-10,48.74
2019-06-11,53.96
2019-06-12,57.02
2019-06-13,56.12
2019-06-14,53.06
2019-06-15,50.0
2019-06-16,52.88
2019-06-17,51.26
2019-06-18,50.72
2019-06-19,49.82
2019-06-20,43.88
2019-06-21,38.3
2019-06-22,42.8
2019-06-23,46.94
2019-06-24,46.04
2019-06-25,47.3
2019-06-26,41.18
2019-06-27,42.98
2019-06-28,40.1
2019-06-29,44.42
2019-06-30,46.94
2019-07-01,51.62
2019-07-02,47.66
2019-07-03,49.46
2019-07-04,46.22
2019-07-05,50.0
2019-07-06,51.98
2019-07-07,48.02
2019-07-08,47.66
2019-07-09,49.64
2019-07-10,52.16
2019-07-11,51.62
2019-07-12,54.5
2019-07-13,54.14
2019-07-14,52.34
2019-07-15,56.3
2019-07-16,54.14
2019-07-17,49.82
2019-07-18,57.2
2019-07-19,48.92
2019-07-20,51.62
2019-07-21,53.78
2019-07-22,59.0
2019-07-23,55.22
2019-07-24,51.26
2019-07-25,54.32
2019-07-26,58.28
2019-07-27,55.4
2019-07-28,53.78
2019-07-29,55.22
2019-07-30,53.24
2019-07-31,50.9
2019-08-01,54.5
2019-08-02,55.22
2019-08-03,54.32
2019-08-04,58.46
2019-08-05,59.9
2019-08-06,60.44
2019-08-07,58.46
2019-08-08,55.94
2019-08-09,50.54
2019-08-10,52.16
2019-08-11,49.46
2019-08-12,46.76
2019-08-13,49.46
2019-08-14,52.52
2019-08-15,54.14
2019-08-16,51.44
2019-08-17,48.2
2019-08-18,52.34
2019-08-19,55.4
2019-08-20,55.04
2019-08-21,53.78
2019-08-22,52.7
2019-08-23,51.62
2019-08-24,53.96
2019-08-25,53.96
2019-08-26,53.6
2019-08-27,62.78
2019-08-28,60.08
2019-08-29,57.38
2019-08-30,59.0
2019-08-31,53.96
2019-09-01,54.14
2019-09-02,53.42
2019-09-03,53.06
2019-09-04,52.7
2019-09-05,61.16
2019-09-06,54.5
2019-09-07,53.78
2019-09-08,47.84
2019-09-09,48.38
2019-09-10,47.3
2019-09-11,48.2
2019-09-12,45.14
2019-09-13,48.02
2019-09-14,49.46
2019-09-15,50.36
2019-09-16,44.96
2019-09-17,42.44
2019-09-18,45.86
2019-09-19,44.06
2019-09-20,44.42
2019-09-21,40.82
2019-09-22,45.32
2019-09-23,46.22
2019-09-24,46.22
2019-09-25,54.68
2019-09-26,51.44
2019-09-27,51.26
2019-09-28,39.74
2019-09-29,34.16
2019-09-30,34.52
2019-10-01,33.08
2019-10-02,33.8
2019-10-03,40.28
2019-10-04,38.12
2019-10-05,33.26
2019-10-06,45.14
2019-10-07,39.38
2019-10-08,39.38
2019-10-09,33.98
2019-10-10,34.52
2019-10-11,43.16
2019-10-12,35.6
2019-10-13,36.86
2019-10-14,34.88
2019-10-15,39.2
2019-10-16,43.7
2019-10-17,40.1
2019-10-18,40.1
2019-10-19,39.38
2019-10-20,36.86
2019-10-21,43.34
2019-10-22,38.12
2019-10-23,38.12
2019-10-24,45.14
2019-10-25,51.62
2019-10-26,46.58
2019-10-27,33.98
2019-10-28,35.06
2019-10-29,30.74
2019-10-30,30.56
2019-10-31,31.82
2019-11-01,39.2
2019-11-02,44.06
2019-11-03,36.32
2019-11-04,37.22
2019-11-05,39.02
2019-11-06,42.8
2019-11-07,44.42
2019-11-08,39.2
2019-11-09,37.76
2019-11-10,39.92
2019-11-11,45.68
2019-11-12,42.26
2019-11-13,36.68
2019-11-14,40.64
2019-11-15,39.74
2019-11-16,41.18
2019-11-17,37.94
2019-11-18,39.56
2019-11-19,44.24
2019-11-20,35.24
2019-11-21,33.62
2019-11-22,30.2
2019-11-23,33.26
2019-11-24,31.64
2019-11-25,31.64
2019-11-26,27.68
2019-11-27,27.86
2019-11-28,20.48
2019-11-29,23.18
2019-11-30,17.06
2019-12-01,31.28
2019-12-02,36.5
2019-12-03,35.6
2019-12-04,33.8
2019-12-05,32.18
2019-12-06,39.38
2019-12-07,37.94
2019-12-08,35.78
2019-12-09,31.46
2019-12-10,29.84
2019-12-11,34.16
2019-12-12,39.02
2019-12-13,35.42
2019-12-14,31.28
2019-12-15,30.38
2019-12-16,23.36
2019-12-17,28.22
2019-12-18,32.36
2019-12-19,34.7
2019-12-20,38.3
2019-12-21,41.36
2019-12-22,33.08
2019-12-23,31.1
2019-12-24,25.52
2019-12-25,29.48
2019-12-26,23.72
2019-12-27,19.58
2019-12-28,24.62
2019-12-29,33.44
2019-12-30,34.34
2019-12-31,30.02
2020-01-01,39.74
2020-01-02,35.78
2020-01-03,31.46
2020-01-04,38.3
2020-01-05,30.02
2020-01-06,31.1
2020-01-07,29.12
2020-01-08,33.44
2020-01-09,32.0
2020-01-10,26.96
2020-01-11,33.26
2020-01-12,29.3
2020-01-13,28.4
2020-01-14,29.66
2020-01-15,23.9
2020-01-16,30.2
2020-01-17,28.4
2020-01-18,29.66
2020-01-19,34.52
2020-01-20,35.24
2020-01-21,35.24
2020-01-22,30.92
2020-01-23,34.88
2020-01-24,40.1
2020-01-25,34.88
2020-01-26,40.46
2020-01-27,34.16
2020-01-28,37.76
2020-01-29,32.72
2020-01-30,35.96
2020-01-31,35.24
2020-02-01,32.72
2020-02-02,33.98
2020-02-03,21.74
2020-02-04,16.7
2020-02-05,27.5
2020-02-06,34.7
2020-02-07,29.66
2020-02-08,35.6
2020-02-09,26.78
2020-02-10,23.0
2020-02-11,32.9
2020-02-12,31.28
2020-02-13,28.04
2020-02-14,33.98
2020-02-15,31.1
2020-02-16,33.98
2020-02-17,29.3
2020-02-18,25.52
2020-02-19,31.64
2020-02-20,35.06
2020-02-21,29.84
2020-02-22,28.76
2020-02-23,28.94
2020-02-24,30.38
2020-02-25,28.58
2020-02-26,30.56
2020-02-27,29.66
2020-02-28,32.36
2020-02-29,34.88
2020-03-01,27.68
2020-03-02,25.7
2020-03-03,30.56
2020-03-04,30.74
2020-03-05,31.82
2020-03-06,33.44
2020-03-07,34.88
2020-03-08,28.58
2020-03-09,32.72
2020-03-10,31.46
2020-03-11,30.56
2020-03-12,31.28
2020-03-13,30.38
2020-03-14,30.56
2020-03-15,24.98
2020-03-16,25.88
2020-03-17,34.7
2020-03-18,33.26
2020-03-19,30.38
2020-03-20,29.66
2020-03-21,31.28
2020-03-22,31.28
2020-03-23,33.8
2020-03-24,31.28
2020-03-25,28.58
2020-03-26,26.96
2020-03-27,28.4
2020-03-28,32.18
2020-03-29,34.16
2020-03-30,35.78
2020-03-31,35.24
2020-04-01,28.94
2020-04-02,28.22
2020-04-03,29.84
2020-04-04,29.66
2020-04-05,35.42
2020-04-06,32.0
2020-04-07,35.78
2020-04-08,33.08
2020-04-09,41.9
2020-04-10,36.68
2020-04-11,39.02
2020-04-12,33.08
2020-04-13,32.0
2020-04-14,34.52
2020-04-15,36.32
2020-04-16,39.2
2020-04-17,42.26
2020-04-18,34.34
2020-04-19,37.94
2020-04-20,34.88
2020-04-21,43.88
2020-04-22,38.66
2020-04-23,45.32
2020-04-24,39.74
2020-04-25,39.38
2020-04-26,46.4
2020-04-27,42.98
2020-04-28,48.2
2020-04-29,47.48
2020-04-30,45.68
2020-05-01,37.4
2020-05-02,42.8
2020-05-03,34.7
2020-05-04,33.26
2020-05-05,38.84
2020-05-06,41.36
2020-05-07,41.54
2020-05-08,47.84
2020-05-09,53.6
2020-05-10,50.36
2020-05-11,48.56
2020-05-12,42.98
2020-05-13,39.2
2020-05-14,38.84
2020-05-15,36.5
2020-05-16,44.96
2020-05-17,44.06
2020-05-18,34.88
2020-05-19,38.66
2020-05-20,39.74
2020-05-21,42.44
2020-05-22,35.78
2020-05-23,33.98
2020-05-24,39.38
2020-05-25,46.58
2020-05-26,51.98
2020-05-27,51.08
2020-05-28,55.04
2020-05-29,61.52
2020-05-30,59.18
2020-05-31,44.42
2020-06-01,48.02
2020-06-02,46.94
2020-06-03,49.82
2020-06-04,48.56
2020-06-05,48.92
2020-06-06,43.52
2020-06-07,34.16
2020-06-08,36.5
2020-06-09,42.08
2020-06-10,46.58
2020-06-11,51.98
2020-06-12,52.34
2020-06-13,42.8
2020-06-14,43.7
2020-06-15,44.78
2020-06-16,40.1
2020-06-17,
2020-06-18,44.96
2020-06-19,50.36
2020-06-20,56.84
2020-06-21,56.66
2020-06-22,51.08
2020-06-23,57.02
2020-06-24,59.0
2020-06-25,51.44
2020-06-26,55.04
2020-06-27,55.22
2020-06-28,48.92
2020-06-29,44.06
2020-06-30,45.14
2020-07-01,43.88
2020-07-02,41.72
2020-07-03,48.2
2020-07-04,49.46
2020-07-05,47.84
2020-07-06,48.92
2020-07-07,46.04
2020-07-08,44.42
2020-07-09,47.48
2020-07-10,51.8
2020-07-11,53.06
2020-07-12,52.52
2020-07-13,51.26
2020-07-14,50.72
2020-07-15,55.58
2020-07-16,56.12
2020-07-17,53.78
2020-07-18,53.06
2020-07-19,54.86
2020-07-20,57.74
2020-07-21,59.0
2020-07-22,60.26
2020-07-23,57.74
2020-07-24,51.08
2020-07-25,51.08
2020-07-26,57.74
2020-07-27,66.74
2020-07-28,60.8
2020-07-29,59.9
2020-07-30,60.44
2020-07-31,59.36
2020-08-01,58.46
2020-08-02,54.68
2020-08-03,55.04
2020-08-04,54.86
2020-08-05,56.12
2020-08-06,53.06
2020-08-07,46.4
2020-08-08,49.82
2020-08-09,52.34
2020-08-10,62.06
2020-08-11,55.22
2020-08-12,51.62
2020-08-13,50.54
2020-08-14,52.52
2020-08-15,60.26
2020-08-16,62.78
2020-08-17,61.88
2020-08-18,64.04
2020-08-19,57.74
2020-08-20,54.68
2020-08-21,53.6
2020-08-22,56.84
2020-08-23,54.68
2020-08-24,54.68
2020-08-25,57.02
2020-08-26,53.6
2020-08-27,52.88
2020-08-28,51.26
2020-08-29,53.6
2020-08-30,50.0
2020-08-31,49.46
2020-09-01,60.44
2020-09-02,59.0
2020-09-03,59.9
2020-09-04,59.54
2020-09-05,56.12
2020-09-06,55.58
2020-09-07,57.38
2020-09-08,56.12
2020-09-09,57.92
2020-09-10,55.76
2020-09-11,50.36
2020-09-12,47.66
2020-09-13,49.46
2020-09-14,51.44
2020-09-15,49.82
2020-09-16,50.72
2020-09-17,49.46
2020-09-18,49.28
2020-09-19,46.22
2020-09-20,43.34
2020-09-21,43.16
2020-09-22,49.46
2020-09-23,45.68
2020-09-24,54.32
2020-09-25,42.62
2020-09-26,50.54
2020-09-27,41.9
2020-09-28,55.22
2020-09-29,64.58
2020-09-30,50.18
2020-10-01,50.9
2020-10-02,50.36
2020-10-03,49.82
2020-10-04,47.3
2020-10-05,45.86
2020-10-06,47.84
2020-10-07,46.04
2020-10-08,44.6
2020-10-09,43.52
2020-10-10,45.5
2020-10-11,40.64
2020-10-12,46.4
2020-10-13,43.52
2020-10-14,48.92
2020-10-15,39.2
2020-10-16,48.92
2020-10-17,43.7
2020-10-18,42.08
2020-10-19,44.78
2020-10-20,42.08
2020-10-21,41.9
2020-10-22,32.9
2020-10-23,39.56
2020-10-24,46.94
2020-10-25,33.44
2020-10-26,32.0
2020-10-27,31.64
2020-10-28,37.22
2020-10-29,37.94
2020-10-30,37.76
2020-10-31,38.48
2020-11-01,48.2
2020-11-02,40.28
2020-11-03,39.38
2020-11-04,43.52
2020-11-05,40.46
2020-11-06,43.88
2020-11-07,32.54
2020-11-08,28.04
2020-11-09,25.52
2020-11-10,30.02
2020-11-11,32.9
2020-11-12,27.5
2020-11-13,33.8
2020-11-14,32.18
2020-11-15,38.48
2020-11-16,38.12
2020-11-17,39.02
2020-11-18,36.68
2020-11-19,34.16
2020-11-20,28.58
2020-11-21,30.56
2020-11-22,34.7
2020-11-23,33.8
2020-11-24,33.26
2020-11-25,33.26
2020-11-26,31.82
2020-11-27,30.02
2020-11-28,29.66
2020-11-29,33.44
2020-11-30,30.56
2020-12-01,28.76
2020-12-02,36.14
2020-12-03,39.92
2020-12-04,30.74
2020-12-05,41.54
2020-12-06,35.96
2020-12-07,35.42
2020-12-08,36.86
2020-12-09,31.46
2020-12-10,34.16
2020-12-11,29.66
2020-12-12,30.92
2020-12-13,32.54
2020-12-14,31.64
2020-12-15,30.38
2020-12-16,33.8
2020-12-17,36.14
2020-12-18,32.18
2020-12-19,34.16
2020-12-20,35.96
2020-12-21,35.78
2020-12-22,31.1
2020-12-23,27.68
2020-12-24,33.98
2020-12-25,35.96
2020-12-26,34.52
2020-12-27,24.62
2020-12-28,28.76
2020-12-29,21.74
2020-12-30,29.12
2020-12-31,33.26
2021-01-01,34.16
2021-01-02,33.08
2021-01-03,36.32
2021-01-04,38.3
2021-01-05,31.1
2021-01-06,33.8
2021-01-07,33.98
2021-01-08,33.62
2021-01-09,26.24
2021-01-10,31.28
2021-01-11,33.26
2021-01-12,36.32
2021-01-13,41.72
2021-01-14,33.26
2021-01-15,31.64
2021-01-16,32.9
2021-01-17,32.18
2021-01-18,32.9
2021-01-19,32.9
2021-01-20,34.16
2021-01-21,31.1
2021-01-22,30.74
2021-01-23,30.38
2021-01-24,23.18
2021-01-25,25.34
2021-01-26,23.9
2021-01-27,27.5
2021-01-28,33.26
2021-01-29,25.88
2021-01-30,30.92
2021-01-31,37.94
2021-02-01,37.94
2021-02-02,35.42
2021-02-03,29.12
2021-02-04,19.4
2021-02-05,25.52
2021-02-06,31.28
2021-02-07,26.06
2021-02-08,23.18
2021-02-09,30.2
2021-02-10,28.76
2021-02-11,29.66
2021-02-12,34.7
2021-02-13,34.34
2021-02-14,31.1
2021-02-15,34.34
2021-02-16,32.36
2021-02-17,29.66
2021-02-18,28.4
2021-02-19,34.52
2021-02-20,31.46
2021-02-21,28.22
2021-02-22,32.72
2021-02-23,37.22
2021-02-24,28.76
2021-02-25,28.94
2021-02-26,29.66
2021-02-27,27.5
2021-02-28,23.9
2021-03-01,30.92
2021-03-02,32.9
2021-03-03,28.22
2021-03-04,29.12
2021-03-05,39.74
2021-03-06,30.2
2021-03-07,31.46
2021-03-08,29.3
2021-03-09,27.68
2021-03-10,29.84
2021-03-11,30.02
2021-03-12,27.32
2021-03-13,27.68
2021-03-14,30.74
2021-03-15,27.68
2021-03-16,19.58
2021-03-17,26.24
2021-03-18,37.22
2021-03-19,33.44
2021-03-20,30.92
2021-03-21,31.46
2021-03-22,32.36
2021-03-23,29.3
2021-03-24,29.48
2021-03-25,33.44
2021-03-26,31.1
2021-03-27,30.2
2021-03-28,31.46
2021-03-29,31.64
2021-03-30,27.14
2021-03-31,34.52
2021-04-01,33.26
2021-04-02,32.9
2021-04-03,33.44
2021-04-04,33.44
2021-04-05,37.22
2021-04-06,30.56
2021-04-07,32.72
2021-04-08,35.6
2021-04-09,30.38
2021-04-10,37.4
2021-04-11,30.2
2021-04-12,35.06
2021-04-13,36.68
2021-04-14,37.58
2021-04-15,37.22
2021-04-16,38.84
2021-04-17,37.22
2021-04-18,38.12
2021-04-19,38.3
2021-04-20,42.8
2021-04-21,38.84
2021-04-22,35.78
2021-04-23,34.52
2021-04-24,39.02
2021-04-25,34.16
2021-04-26,32.18
2021-04-27,32.0
2021-04-28,33.98
2021-04-29,41.0
2021-04-30,44.6
2021-05-01,46.22
2021-05-02,41.0
2021-05-03,35.06
2021-05-04,42.26
2021-05-05,41.72
2021-05-06,46.4
2021-05-07,39.2
2021-05-08,34.16
2021-05-09,35.78
2021-05-10,36.32
2021-05-11,41.36
2021-05-12,44.24
2021-05-13,45.5
2021-05-14,46.76
2021-05-15,44.96
2021-05-16,45.68
2021-05-17,47.66
2021-05-18,42.8
2021-05-19,39.74
2021-05-20,32.18
2021-05-21,33.98
2021-05-22,35.78
2021-05-23,37.04
2021-05-24,41.72
2021-05-25,43.34
2021-05-26,37.4
2021-05-27,43.34
2021-05-28,45.32
2021-05-29,44.24
2021-05-30,47.3
2021-05-31,50.0
2021-06-01,54.68
2021-06-02,58.28
2021-06-03,57.38
2021-06-04,53.24
2021-06-05,49.82
2021-06-06,39.38
2021-06-07,42.26
2021-06-08,40.64
2021-06-09,40.1
2021-06-10,38.66
2021-06-11,42.62
2021-06-12,44.78
2021-06-13,52.16
2021-06-14,52.16
2021-06-15,44.96
2021-06-16,40.82
2021-06-17,47.3
2021-06-18,51.8
2021-06-19,50.9
2021-06-20,54.14
2021-06-21,60.26
2021-06-22,60.26
2021-06-23,52.16
2021-06-24,55.76
2021-06-25,57.2
2021-06-26,57.02
2021-06-27,62.6
2021-06-28,67.1
2021-06-29,61.88
2021-06-30,59.36
2021-07-01,59.36
2021-07-02,58.28
2021-07-03,60.26
2021-07-04,60.44
2021-07-05,57.56
2021-07-06,59.9
2021-07-07,57.74
2021-07-08,53.6
2021-07-09,53.96
2021-07-10,59.9
2021-07-11,57.92
2021-07-12,58.64
2021-07-13,54.5
2021-07-14,57.74
2021-07-15,55.94
2021-07-16,53.42
2021-07-17,51.62
2021-07-18,55.04
2021-07-19,57.92
2021-07-20,55.4
2021-07-21,53.24
2021-07-22,48.38
2021-07-23,50.9
2021-07-24,55.4
2021-07-25,57.74
2021-07-26,60.62
2021-07-27,62.24
2021-07-28,57.74
2021-07-29,57.56
2021-07-30,62.24
2021-07-31,64.58
2021-08-01,62.24
2021-08-02,58.1
2021-08-03,59.9
2021-08-04,57.02
2021-08-05,57.38
2021-08-06,49.82
2021-08-07,53.42
2021-08-08,57.92
2021-08-09,51.26
2021-08-10,54.68
2021-08-11,60.8
2021-08-12,60.26
2021-08-13,66.74
2021-08-14,61.7
2021-08-15,62.24
2021-08-16,62.42
2021-08-17,55.94
2021-08-18,43.34
2021-08-19,47.84
2021-08-20,50.9
2021-08-21,48.38
2021-08-22,44.78
2021-08-23,48.2
2021-08-24,47.12
2021-08-25,50.18
2021-08-26,48.56
2021-08-27,50.0
2021-08-28,50.18
2021-08-29,53.24
2021-08-30,51.62
2021-08-31,45.5
2021-09-01,43.34
2021-09-02,44.78
2021-09-03,50.9
2021-09-04,48.92
2021-09-05,51.08
2021-09-06,51.98
2021-09-07,53.78
2021-09-08,58.82
2021-09-09,57.2
2021-09-10,58.46
2021-09-11,48.92
2021-09-12,49.46
2021-09-13,46.22
2021-09-14,53.06
2021-09-15,49.28
2021-09-16,46.76
2021-09-17,46.04
2021-09-18,49.1
2021-09-19,40.64
2021-09-20,37.58
2021-09-21,53.42
2021-09-22,48.38
2021-09-23,43.16
2021-09-24,60.8
2021-09-25,50.18
2021-09-26,48.38
2021-09-27,52.34
2021-09-28,38.48
2021-09-29,35.6
2021-09-30,40.82
2021-10-01,43.16
2021-10-02,45.86
2021-10-03,44.78
2021-10-04,47.12
2021-10-05,44.06
2021-10-06,39.56
2021-10-07,35.96
2021-10-08,35.96
2021-10-09,36.14
2021-10-10,36.14
2021-10-11,33.08
2021-10-12,30.02
2021-10-13,35.96
2021-10-14,31.28
2021-10-15,34.88
2021-10-16,39.02
2021-10-17,39.38
2021-10-18,34.7
2021-10-19,33.8
2021-10-20,39.2
2021-10-21,44.78
2021-10-22,42.98
2021-10-23,39.56
2021-10-24,41.54
2021-10-25,35.96
2021-10-26,38.12
2021-10-27,43.34
2021-10-28,48.02
2021-10-29,44.42
2021-10-30,48.74
2021-10-31,42.62
2021-11-01,43.16
2021-11-02,44.24
2021-11-03,42.8
2021-11-04,49.64
2021-11-05,37.4
2021-11-06,37.94
2021-11-07,31.28
2021-11-08,30.02
2021-11-09,36.32
2021-11-10,33.98
2021-11-11,46.76
2021-11-12,39.56
2021-11-13,44.78
2021-11-14,40.1
2021-11-15,39.56
2021-11-16,37.58
2021-11-17,34.52
2021-11-18,33.44
2021-11-19,41.0
2021-11-20,32.72
2021-11-21,32.54
2021-11-22,33.98
2021-11-23,33.8
2021-11-24,27.86
2021-11-25,32.0
2021-11-26,32.36
2021-11-27,38.48
2021-11-28,39.92
2021-11-29,34.88
2021-11-30,35.24
2021-12-01,40.1
2021-12-02,36.68
2021-12-03,35.42
2021-12-04,33.98
2021-12-05,41.72
2021-12-06,32.9
2021-12-07,39.2
2021-12-08,
2021-12-09,31.1
2021-12-10,27.5
2021-12-11,31.64
2021-12-12,31.64
2021-12-13,31.1
2021-12-14,27.5
2021-12-15,21.2
2021-12-16,28.76
2021-12-17,30.38
2021-12-18,22.82
2021-12-19,32.72
2021-12-20,37.22
2021-12-21,37.58
2021-12-22,31.64
2021-12-23,34.7
2021-12-24,28.94
2021-12-25,27.86
2021-12-26,23.0
2021-12-27,24.98
2021-12-28,21.56
2021-12-29,28.4
2021-12-30,15.44
2021-12-31,28.58
2022-01-01,
2022-01-02,21.02
2022-01-03,29.12
2022-01-04,32.0
2022-01-05,34.34
2022-01-06,39.92
2022-01-07,36.32
2022-01-08,31.28
2022-01-09,33.8
2022-01-10,33.8
2022-01-11,36.32
2022-01-12,31.46
2022-01-13,32.0
2022-01-14,35.42
2022-01-15,39.2
2022-01-16,30.02
2022-01-17,30.2
2022-01-18,28.58
2022-01-19,35.06
2022-01-20,33.44
2022-01-21,33.08
2022-01-22,35.96
2022-01-23,41.36
2022-01-24,30.38
2022-01-25,36.5
2022-01-26,37.4
2022-01-27,37.94
2022-01-28,36.14
2022-01-29,29.66
2022-01-30,28.58
2022-01-31,36.86
2022-02-01,23.36
2022-02-02,26.24
2022-02-03,27.14
2022-02-04,29.12
2022-02-05,28.04
2022-02-06,42.98
2022-02-07,33.26
2022-02-08,30.38
2022-02-09,36.5
2022-02-10,38.3
2022-02-11,33.44
2022-02-12,39.56
2022-02-13,32.72
2022-02-14,34.52
2022-02-15,28.76
2022-02-16,30.92
2022-02-17,30.38
2022-02-18,30.38
2022-02-19,30.56
2022-02-20,30.02
2022-02-21,26.42
2022-02-22,24.44
2022-02-23,13.46
2022-02-24,13.28
2022-02-25,21.56
2022-02-26,32.0
2022-02-27,35.24
2022-02-28,33.44
2022-03-01,34.88
2022-03-02,35.6
2022-03-03,36.68
2022-03-04,31.82
2022-03-05,28.4
2022-03-06,31.1
2022-03-07,33.26
2022-03-08,29.3
2022-03-09,33.44
2022-03-10,26.96
2022-03-11,28.04
2022-03-12,31.28
2022-03-13,32.0
2022-03-14,34.34
2022-03-15,38.3
2022-03-16,32.9
2022-03-17,31.28
2022-03-18,30.74
2022-03-19,35.6
2022-03-20,28.58
2022-03-21,30.02
2022-03-22,38.3
2022-03-23,39.2
2022-03-24,35.06
2022-03-25,37.4
2022-03-26,34.34
2022-03-27,37.4
2022-03-28,41.36
2022-03-29,40.1
2022-03-30,42.98
2022-03-31,33.98
2022-04-01,30.56
2022-04-02,38.66
2022-04-03,32.0
2022-04-04,35.06
2022-04-05,31.64
2022-04-06,33.26
2022-04-07,37.58
2022-04-08,41.0
2022-04-09,30.2
2022-04-10,30.74
2022-04-11,32.9
2022-04-12,25.88
2022-04-13,27.14
2022-04-14,31.64
2022-04-15,27.5
2022-04-16,33.26
2022-04-17,27.5
2022-04-18,33.62
2022-04-19,30.2
2022-04-20,30.92
2022-04-21,34.34
2022-04-22,33.26
2022-04-23,31.82
2022-04-24,31.64
2022-04-25,34.88
2022-04-26,38.66
2022-04-27,31.64
2022-04-28,35.24
2022-04-29,34.52
2022-04-30,40.46
2022-05-01,34.88
2022-05-02,36.86
2022-05-03,33.8
2022-05-04,37.22
2022-05-05,41.72
2022-05-06,43.7
2022-05-07,37.22
2022-05-08,31.28
2022-05-09,29.48
2022-05-10,30.02
2022-05-11,33.44
2022-05-12,33.8
2022-05-13,37.94
2022-05-14,43.7
2022-05-15,42.08
2022-05-16,39.56
2022-05-17,42.62
2022-05-18,40.46
2022-05-19,44.78
2022-05-20,30.38
2022-05-21,34.88
2022-05-22,37.58
2022-05-23,43.34
2022-05-24,41.72
2022-05-25,46.4
2022-05-26,47.48
2022-05-27,44.6
2022-05-28,41.9
2022-05-29,35.24
2022-05-30,34.16
2022-05-31,34.34
2022-06-01,43.34
2022-06-02,47.66
2022-06-03,48.02
2022-06-04,44.24
2022-06-05,46.22
2022-06-06,43.7
2022-06-07,41.72
2022-06-08,50.54
2022-06-09,46.76
2022-06-10,53.42
2022-06-11,54.5
2022-06-12,52.52
2022-06-13,37.4
2022-06-14,37.76
2022-06-15,39.92
2022-06-16,45.86
2022-06-17,43.7
2022-06-18,39.56
2022-06-19,37.22
2022-06-20,39.56
2022-06-21,45.5
2022-06-22,51.26
2022-06-23,51.98
2022-06-24,47.66
2022-06-25,59.0
2022-06-26,60.44
2022-06-27,58.1
2022-06-28,53.24
2022-06-29,47.84
2022-06-30,50.18
2022-07-01,50.18
2022-07-02,50.9
2022-07-03,48.74
2022-07-04,49.1
2022-07-05,50.9
2022-07-06,52.16
2022-07-07,53.06
2022-07-08,50.9
2022-07-09,52.7
2022-07-10,53.42
2022-07-11,60.26
2022-07-12,60.26
2022-07-13,59.72
2022-07-14,55.04
2022-07-15,56.12
2022-07-16,53.96
2022-07-17,55.4
2022-07-18,50.9
2022-07-19,57.38
2022-07-20,57.74
2022-07-21,58.64
2022-07-22,54.86
2022-07-23,49.28
2022-07-24,52.34
2022-07-25,61.34
2022-07-26,61.52
2022-07-27,63.5
2022-07-28,64.04
2022-07-29,64.76
2022-07-30,66.38
2022-07-31,66.56
2022-08-01,68.0
2022-08-02,59.36
2022-08-03,59.72
2022-08-04,54.86
2022-08-05,56.48
2022-08-06,54.14
2022-08-07,56.12
2022-08-08,60.08
2022-08-09,60.98
2022-08-10,55.4
2022-08-11,51.44
2022-08-12,53.42
2022-08-13,51.62
2022-08-14,51.26
2022-08-15,52.16
2022-08-16,54.5
2022-08-17,60.44
2022-08-18,62.24
2022-08-19,56.48
2022-08-20,53.6
2022-08-21,53.06
2022-08-22,58.46
2022-08-23,53.6
2022-08-24,55.22
2022-08-25,59.36
2022-08-26,58.46
2022-08-27,53.78
2022-08-28,50.0